Terminal Aerodrome Forecast
Issued by NWS Upton, NY

Home | Current Version | Previous Version | Text Only | Print | Product List | Glossary On
Versions: 1 2 3 4 5 6 7 8 9 10 11 12 13 14 15 16 17 18 19 20 21 22 23 24 25 26 27 28 29 30 31 32 33 34 35 36 37 38 39
000
FTUS41 KOKX 210526
TAFISP
TAF
KISP 210526Z 2106/2206 35011KT P6SM SCT030 BKN150
     FM211300 34014G22KT P6SM FEW040 SCT080 OVC250
     FM212200 01011KT P6SM OVC250=

USA.gov is the U.S. government's official web portal to all federal, state and local government web resources and services.